Location: Shenandoah County Park
(38.9356°N, 78.4524°W)
Time: 14:06:32
(UTC-05:00)

Transit 2A - Pass Details

Date: 21 October 2025
Orbit: 591 x 954 km, 66.7° (Epoch: 07 November)

Event Time Altitude Azimuth Distance (km) Brightness Sun altitude
Rises 20:25:55 0° 270° (W) 3,068 10.5 -23.9°
Reaches altitude 10° 20:30:01 10° 304° (NW) 2,250 9.2 -24.7°
Maximum altitude 20:31:40 11° 323° (NW) 2,194 8.9 -25.0°
Drops below altitude 10° 20:33:22 10° 342° (NNW) 2,333 8.8 -25.4°
Sets 20:37:54 0° 15° (NNE) 3,374 9.3 -26.2°
